This is the latest recevied weather packets stored in our database for station/object AE6DC-5. If no packets are shown the sender has not sent any weather packets the latest 10 day(s).
| Time | Temp. | Humidity | Pressure | Rain* | Wind** | Luminosity | Snow |
|---|---|---|---|---|---|---|---|
| 1777764760 | 12.22° C | 88% | 1012.8 hPa | 0 mm | - | 315 W/m² | - |
| 1777764018 | 12.22° C | 88% | 1013 hPa | 0 mm | - | 336 W/m² | - |
| 1777762218 | 12.22° C | 88% | 1013.3 hPa | 0 mm | - | 436 W/m² | - |
| 1777761501 | 12.22° C | 87% | 1013.4 hPa | 0 mm | - | 417 W/m² | - |
| 1777760782 | 12.22° C | 87% | 1013.6 hPa | 0 mm | - | 299 W/m² | - |
| 1777760422 | 12.22° C | 88% | 1013.9 hPa | 0 mm | - | 251 W/m² | - |
| 1777758620 | 12.22° C | 87% | 1014.1 hPa | 0 mm | - | 339 W/m² | - |
| 1777757176 | 12.22° C | 87% | 1014 hPa | 0 mm | - | 417 W/m² | - |
| 1777755737 | 12.22° C | 86% | 1014.2 hPa | 0 mm | - | 365 W/m² | - |
| 1777755380 | 12.22° C | 87% | 1014.3 hPa | 0 mm | - | 337 W/m² | - |
| 1777753941 | 12.22° C | 87% | 1014.4 hPa | 0 mm | - | 404 W/m² | - |
| 1777751823 | 12.22° C | 88% | 1014.6 hPa | 0 mm | - | 394 W/m² | - |
| 1777749991 | 12.22° C | 87% | 1014.7 hPa | 0 mm | - | 315 W/m² | - |
| 1777748179 | 12.22° C | 88% | 1014.4 hPa | 0 mm | - | 421 W/m² | - |
| 1777747480 | 12.22° C | 88% | 1014.5 hPa | 0 mm | - | 318 W/m² | - |
| 1777746384 | 12.22° C | 89% | 1014.6 hPa | 0 mm | - | 225 W/m² | - |
| 1777743858 | 12.22° C | 89% | 1014.5 hPa | 0 mm | - | 155 W/m² | - |
| 1777742418 | 12.22° C | 90% | 1014.4 hPa | 0 mm | - | 129 W/m² | - |
| 1777741698 | 12.22° C | 91% | 1014.3 hPa | 0 mm | - | 109 W/m² | - |
| 1777740618 | 12.22° C | 91% | 1014.3 hPa | 0 mm | - | 148 W/m² | - |
| 1777739919 | 12.22° C | 91% | 1014.3 hPa | 0 mm | - | 142 W/m² | - |
| 1777738819 | 12.22° C | 92% | 1014.4 hPa | 0 mm | - | 64 W/m² | - |
| 1777735257 | 12.22° C | 91% | 1014.1 hPa | 0 mm | - | 30 W/m² | - |
| 1777733429 | 12.22° C | 91% | 1013.8 hPa | 0 mm | - | 27 W/m² | - |
| 1777732701 | 12.22° C | 91% | 1013.8 hPa | 0 mm | - | 24 W/m² | - |
* Rain latest hour (hover to see other rain measurements)
** Current wind speed in m/s (hover to see current wind gust speed)